QPF
0.00 0.00 0.00 0.00 0.00 0.00 0.00 0.01 0.01 0.02 0.02 0.01 0.01 0.01 0.01 0.03 0.04 0.13 0.06 0.01 0.00 0.00 0.00 0.00 0.00 0.00 0.00 0.00 0.01 0.00 0.00 0.00 0.00 0.00 0.00 0.00 0.00 0.00 0.00 0.00 0.00 0.00 0.00 0.00 0.00 0.00 0.00 0.00 0.00
0.00 0.00 0.00 0.00 0.00 0.00 0.01 0.01 0.01 0.01 0.01 0.00 0.00 0.00 0.00 0.03 0.03 0.01 0.00 0.00 0.00 0.00 0.00 0.00 0.00 0.00 0.00 0.00 0.01 0.01 0.00 0.00 0.00 0.01 0.01 0.01 0.01 0.01 0.00 0.00 0.00 0.00 0.00 0.00 0.00 0.00 0.00 0.00 0.00
0.00 0.00 0.00 0.00 0.00 0.00 0.02 0.02 0.01 0.00 0.00 0.00 0.00 0.00 0.00 0.01 0.01 0.00 0.00 0.00 0.00 0.00 0.00 0.00 0.00 0.00 0.00 0.01 0.01 0.01 0.01 0.01 0.01 0.01 0.01 0.01 0.01 0.01 0.01 0.01 0.00 0.00 0.00 0.00 0.00 0.00 0.00 0.00 0.00
0.00 0.00 0.00 0.00 0.00 0.00 0.01 0.01 0.01 0.00 0.00 0.00 0.00 0.00 0.00 0.00 0.00 0.00 0.00 0.00 0.00 0.00 0.00 0.00 0.00 0.00 0.01 0.01 0.01 0.01 0.01 0.02 0.01 0.01 0.02 0.02 0.01 0.01 0.01 0.01 0.01 0.01 0.00 0.00 0.00 0.00 0.00 0.00 0.00
0.00 0.00 0.00 0.00 0.00 0.00 0.00 0.01 0.01 0.01 0.00 0.00 0.00 0.01 0.02 0.00 0.00 0.00 0.00 0.00 0.00 0.00 0.00 0.00 0.00 0.00 0.01 0.01 0.01 0.02 0.02 0.02 0.02 0.03 0.03 0.02 0.01 0.01 0.01 0.01 0.01 0.01 0.00 0.00 0.00 0.00 0.00 0.00 0.00
0.00 0.00 0.00 0.00 0.00 0.00 0.00 0.00 0.00 0.01 0.01 0.00 0.00 0.01 0.07 0.03 0.00 0.00 0.00 0.00 0.00 0.00 0.00 0.00 0.00 0.01 0.01 0.01 0.01 0.01 0.01 0.01 0.03 0.04 0.03 0.02 0.01 0.01 0.01 0.01 0.01 0.01 0.00 0.00 0.00 0.00 0.00 0.00 0.00
0.00 0.00 0.00 0.00 0.00 0.00 0.00 0.00 0.00 0.00 0.00 0.00 0.00 0.01 0.06 0.03 0.01 0.00 0.00 0.00 0.00 0.00 0.00 0.00 0.00 0.00 0.01 0.01 0.01 0.01 0.02 0.03 0.05 0.05 0.03 0.02 0.01 0.01 0.01 0.01 0.01 0.00 0.00 0.00 0.00 0.00 0.00 0.00 0.00
0.00 0.00 0.00 0.00 0.00 0.00 0.00 0.01 0.01 0.00 0.00 0.00 0.01 0.02 0.09 0.05 0.01 0.00 0.00 0.00 0.02 0.01 0.00 0.00 0.00 0.00 0.00 0.00 0.01 0.02 0.03 0.06 0.06 0.04 0.02 0.01 0.01 0.00 0.00 0.00 0.00 0.00 0.00 0.00 0.00 0.00 0.00 0.00 0.00
0.00 0.00 0.00 0.00 0.00 0.00 0.01 0.01 0.01 0.00 0.00 0.00 0.00 0.01 0.07 0.05 0.01 0.00 0.00 0.00 0.00 0.00 0.00 0.01 0.01 0.00 0.00 0.00 0.00 0.01 0.02 0.04 0.03 0.02 0.01 0.00 0.00 0.00 0.00 0.00 0.00 0.00 0.00 0.00 0.00 0.00 0.00 0.00 0.00
0.00 0.00 0.00 0.00 0.00 0.00 0.01 0.01 0.01 0.01 0.01 0.00 0.00 0.00 0.01 0.01 0.00 0.00 0.00 0.00 0.00 0.00 0.00 0.00 0.00 0.00 0.00 0.01 0.00 0.01 0.01 0.00 0.00 0.00 0.00 0.00 0.02 0.02 0.01 0.01 0.00 0.00 0.00 0.00 0.00 0.00 0.00 0.00 0.00
0.00 0.00 0.00 0.00 0.00 0.00 0.00 0.00 0.01 0.01 0.01 0.00 0.00 0.00 0.00 0.00 0.00 0.00 0.00 0.00 0.00 0.00 0.00 0.00 0.00 0.00 0.01 0.02 0.01 0.02 0.02 0.02 0.01 0.04 0.02 0.03 0.04 0.01 0.01 0.02 0.01 0.00 0.00 0.01 0.02 0.01 0.01 0.00 0.01
0.00 0.00 0.00 0.00 0.00 0.00 0.00 0.00 0.00 0.01 0.00 0.00 0.00 0.00 0.00 0.00 0.00 0.00 0.00 0.00 0.00 0.00 0.00 0.00 0.00 0.01 0.01 0.02 0.02 0.02 0.02 0.02 0.03 0.05 0.02 0.04 0.05 0.03 0.02 0.03 0.02 0.02 0.01 0.03 0.03 0.02 0.01 0.00 0.00
0.00 0.00 0.00 0.00 0.00 0.00 0.00 0.00 0.00 0.00 0.00 0.00 0.00 0.00 0.00 0.00 0.00 0.00 0.00 0.00 0.00 0.01 0.00 0.00 0.00 0.01 0.02 0.03 0.03 0.03 0.03 0.03 0.03 0.05 0.03 0.04 0.03 0.02 0.02 0.02 0.02 0.01 0.03 0.04 0.03 0.03 0.03 0.01 0.00
0.00 0.00 0.00 0.00 0.00 0.00 0.00 0.00 0.00 0.00 0.00 0.00 0.00 0.00 0.00 0.00 0.00 0.00 0.00 0.00 0.01 0.03 0.02 0.00 0.00 0.00 0.01 0.02 0.03 0.03 0.03 0.05 0.06 0.05 0.04 0.03 0.03 0.04 0.03 0.03 0.03 0.03 0.04 0.05 0.05 0.04 0.04 0.03 0.02
0.00 0.00 0.00 0.00 0.00 0.00 0.00 0.00 0.00 0.00 0.00 0.00 0.00 0.00 0.00 0.00 0.00 0.00 0.00 0.00 0.00 0.03 0.03 0.00 0.00 0.01 0.01 0.02 0.02 0.04 0.02 0.03 0.04 0.07 0.05 0.03 0.04 0.07 0.04 0.05 0.06 0.05 0.05 0.05 0.05 0.05 0.06 0.06 0.04
0.00 0.00 0.00 0.00 0.00 0.00 0.00 0.00 0.00 0.00 0.00 0.00 0.00 0.00 0.00 0.00 0.00 0.00 0.00 0.00 0.00 0.01 0.02 0.00 0.00 0.01 0.02 0.03 0.03 0.03 0.03 0.06 0.05 0.06 0.07 0.05 0.04 0.05 0.06 0.06 0.08 0.06 0.06 0.08 0.08 0.08 0.09 0.10 0.08
0.00 0.00 0.00 0.00 0.00 0.00 0.00 0.00 0.00 0.00 0.00 0.00 0.00 0.00 0.00 0.00 0.02 0.02 0.01 0.00 0.00 0.00 0.00 0.00 0.00 0.01 0.02 0.03 0.04 0.05 0.06 0.08 0.07 0.08 0.10 0.09 0.05 0.06 0.07 0.08 0.10 0.08 0.09 0.09 0.08 0.10 0.12 0.14 0.13
0.00 0.00 0.00 0.00 0.00 0.00 0.00 0.00 0.00 0.00 0.00 0.00 0.00 0.01 0.01 0.01 0.02 0.05 0.03 0.01 0.00 0.01 0.01 0.01 0.01 0.02 0.02 0.02 0.03 0.05 0.06 0.07 0.06 0.07 0.08 0.09 0.10 0.09 0.11 0.11 0.11 0.09 0.11 0.13 0.12 0.14 0.12 0.14 0.12
0.00 0.00 0.00 0.00 0.00 0.00 0.00 0.00 0.00 0.00 0.00 0.01 0.02 0.02 0.02 0.04 0.03 0.04 0.05 0.02 0.01 0.02 0.03 0.03 0.02 0.02 0.03 0.03 0.04 0.04 0.06 0.07 0.06 0.05 0.06 0.08 0.10 0.11 0.13 0.13 0.15 0.15 0.17 0.18 0.19 0.18 0.16 0.14 0.11
0.00 0.00 0.00 0.00 0.00 0.00 0.00 0.01 0.01 0.01 0.02 0.04 0.05 0.03 0.03 0.07 0.05 0.04 0.04 0.03 0.03 0.04 0.05 0.05 0.05 0.05 0.04 0.05 0.07 0.08 0.09 0.09 0.07 0.06 0.08 0.09 0.09 0.12 0.13 0.14 0.16 0.17 0.21 0.21 0.22 0.21 0.21 0.17 0.14
0.00 0.00 0.00 0.00 0.00 0.00 0.00 0.02 0.03 0.02 0.03 0.05 0.06 0.05 0.06 0.10 0.11 0.12 0.11 0.07 0.07 0.09 0.08 0.08 0.11 0.12 0.12 0.11 0.09 0.10 0.11 0.12 0.09 0.09 0.10 0.11 0.13 0.15 0.17 0.18 0.20 0.20 0.20 0.20 0.21 0.21 0.22 0.21 0.20
0.00 0.00 0.00 0.00 0.00 0.00 0.00 0.03 0.04 0.02 0.02 0.02 0.04 0.06 0.10 0.15 0.14 0.13 0.12 0.11 0.10 0.12 0.13 0.12 0.16 0.18 0.17 0.18 0.19 0.19 0.18 0.18 0.18 0.17 0.16 0.17 0.17 0.19 0.20 0.22 0.22 0.20 0.18 0.18 0.18 0.19 0.20 0.24 0.24
0.00 0.00 0.00 0.00 0.00 0.00 0.00 0.04 0.09 0.05 0.04 0.02 0.03 0.04 0.06 0.10 0.14 0.08 0.06 0.07 0.08 0.09 0.13 0.14 0.16 0.17 0.19 0.22 0.21 0.24 0.26 0.27 0.25 0.24 0.23 0.22 0.21 0.21 0.19 0.17 0.17 0.18 0.19 0.19 0.19 0.19 0.20 0.20 0.17
0.00 0.00 0.00 0.00 0.00 0.00 0.00 0.03 0.14 0.18 0.13 0.07 0.04 0.04 0.05 0.04 0.10 0.10 0.07 0.06 0.06 0.07 0.09 0.12 0.14 0.13 0.14 0.16 0.18 0.20 0.22 0.24 0.25 0.25 0.23 0.21 0.19 0.17 0.15 0.13 0.13 0.13 0.12 0.13 0.13 0.13 0.12 0.11 0.10
0.00 0.00 0.00 0.00 0.00 0.00 0.00 0.04 0.20 0.29 0.19 0.13 0.06 0.02 0.02 0.02 0.03 0.07 0.13 0.05 0.04 0.05 0.06 0.09 0.12 0.12 0.13 0.14 0.16 0.16 0.19 0.24 0.29 0.26 0.23 0.20 0.17 0.16 0.14 0.12 0.10 0.10 0.09 0.08 0.07 0.06 0.06 0.06 0.05
0.00 0.00 0.00 0.00 0.00 0.00 0.01 0.06 0.13 0.19 0.11 0.07 0.04 0.01 0.01 0.02 0.02 0.03 0.06 0.06 0.04 0.04 0.05 0.06 0.07 0.08 0.10 0.13 0.15 0.18 0.23 0.25 0.28 0.27 0.22 0.19 0.17 0.15 0.12 0.10 0.09 0.09 0.07 0.06 0.05 0.05 0.04 0.03 0.02
0.00 0.00 0.00 0.00 0.00 0.01 0.06 0.08 0.10 0.10 0.07 0.04 0.03 0.02 0.02 0.02 0.03 0.03 0.04 0.04 0.04 0.05 0.05 0.06 0.06 0.07 0.10 0.12 0.15 0.20 0.23 0.24 0.23 0.21 0.19 0.18 0.15 0.12 0.09 0.07 0.07 0.07 0.06 0.05 0.04 0.04 0.03 0.02 0.02
0.00 0.00 0.00 0.00 0.00 0.04 0.12 0.10 0.08 0.08 0.06 0.03 0.02 0.02 0.02 0.02 0.03 0.03 0.04 0.04 0.05 0.04 0.05 0.08 0.07 0.06 0.09 0.10 0.10 0.13 0.16 0.18 0.15 0.14 0.12 0.11 0.10 0.09 0.08 0.07 0.07 0.07 0.07 0.05 0.05 0.04 0.03 0.03 0.02
0.00 0.00 0.00 0.00 0.00 0.03 0.13 0.25 0.20 0.13 0.07 0.02 0.02 0.02 0.02 0.03 0.03 0.03 0.02 0.03 0.03 0.04 0.05 0.05 0.06 0.06 0.07 0.08 0.08 0.10 0.12 0.12 0.11 0.11 0.10 0.10 0.10 0.10 0.09 0.09 0.09 0.09 0.08 0.07 0.06 0.06 0.05 0.04 0.03
0.00 0.00 0.00 0.00 0.00 0.01 0.11 0.36 0.39 0.21 0.09 0.03 0.02 0.02 0.02 0.02 0.02 0.02 0.02 0.02 0.02 0.03 0.03 0.03 0.03 0.04 0.05 0.05 0.06 0.07 0.08 0.07 0.07 0.08 0.08 0.08 0.08 0.08 0.08 0.08 0.09 0.09 0.08 0.07 0.07 0.06 0.05 0.04 0.03
MSLP
1008.94 1009.13 1009.48 1009.90 1010.30 1010.60 1010.75 1010.71 1010.49 1010.12 1009.68 1009.22 1008.79 1008.43 1008.16 1007.97 1007.88 1007.86 1007.94 1008.12 1008.41 1008.85 1009.41 1010.09 1010.83 1011.57 1012.26 1012.84 1013.29 1013.62 1013.86 1014.06 1014.28 1014.57 1014.94 1015.37 1015.82 1016.25 1016.61 1016.85 1016.97 1017.00 1016.98 1016.94 1016.95 1017.00 1017.11 1017.26 1017.40
1009.34 1009.63 1009.98 1010.32 1010.56 1010.64 1010.51 1010.19 1009.71 1009.14 1008.54 1007.99 1007.54 1007.21 1007.01 1006.93 1006.94 1007.04 1007.23 1007.52 1007.92 1008.46 1009.12 1009.89 1010.71 1011.53 1012.27 1012.90 1013.39 1013.74 1014.00 1014.23 1014.46 1014.76 1015.13 1015.56 1016.01 1016.43 1016.77 1017.00 1017.13 1017.18 1017.18 1017.18 1017.21 1017.28 1017.40 1017.53 1017.65
1009.84 1010.19 1010.53 1010.77 1010.83 1010.68 1010.30 1009.73 1009.03 1008.28 1007.58 1006.98 1006.53 1006.24 1006.11 1006.11 1006.21 1006.39 1006.66 1007.02 1007.50 1008.11 1008.84 1009.68 1010.57 1011.46 1012.27 1012.96 1013.51 1013.92 1014.23 1014.48 1014.73 1015.03 1015.38 1015.78 1016.19 1016.57 1016.89 1017.12 1017.26 1017.34 1017.39 1017.45 1017.53 1017.65 1017.78 1017.89 1017.97
1010.35 1010.72 1011.02 1011.14 1011.04 1010.69 1010.10 1009.35 1008.49 1007.64 1006.89 1006.28 1005.87 1005.64 1005.58 1005.65 1005.82 1006.06 1006.37 1006.77 1007.28 1007.92 1008.69 1009.56 1010.50 1011.44 1012.32 1013.08 1013.69 1014.17 1014.53 1014.82 1015.09 1015.38 1015.70 1016.05 1016.41 1016.74 1017.02 1017.24 1017.40 1017.53 1017.64 1017.77 1017.92 1018.07 1018.21 1018.31 1018.33
1010.74 1011.11 1011.33 1011.34 1011.09 1010.59 1009.87 1009.01 1008.09 1007.22 1006.48 1005.93 1005.58 1005.43 1005.44 1005.57 1005.79 1006.06 1006.40 1006.81 1007.32 1007.96 1008.74 1009.62 1010.57 1011.54 1012.45 1013.25 1013.92 1014.45 1014.87 1015.20 1015.49 1015.78 1016.07 1016.38 1016.68 1016.96 1017.20 1017.40 1017.57 1017.74 1017.91 1018.10 1018.30 1018.49 1018.64 1018.71 1018.68
1010.94 1011.24 1011.36 1011.26 1010.91 1010.32 1009.54 1008.66 1007.76 1006.95 1006.29 1005.83 1005.58 1005.52 1005.60 1005.79 1006.04 1006.33 1006.68 1007.09 1007.59 1008.22 1008.97 1009.83 1010.77 1011.72 1012.62 1013.44 1014.14 1014.71 1015.17 1015.54 1015.86 1016.15 1016.43 1016.70 1016.96 1017.19 1017.39 1017.57 1017.75 1017.94 1018.15 1018.38 1018.62 1018.82 1018.96 1018.99 1018.91
1010.87 1011.06 1011.08 1010.88 1010.45 1009.83 1009.06 1008.24 1007.44 1006.74 1006.21 1005.88 1005.73 1005.76 1005.91 1006.14 1006.41 1006.72 1007.08 1007.48 1007.98 1008.59 1009.31 1010.13 1011.01 1011.92 1012.78 1013.57 1014.26 1014.84 1015.33 1015.73 1016.08 1016.40 1016.68 1016.94 1017.18 1017.38 1017.55 1017.71 1017.88 1018.07 1018.28 1018.52 1018.76 1018.96 1019.07 1019.07 1018.94
1010.55 1010.62 1010.52 1010.23 1009.76 1009.15 1008.46 1007.74 1007.08 1006.53 1006.15 1005.94 1005.89 1005.99 1006.18 1006.44 1006.73 1007.06 1007.42 1007.84 1008.34 1008.93 1009.62 1010.39 1011.21 1012.04 1012.84 1013.57 1014.22 1014.79 1015.27 1015.70 1016.09 1016.44 1016.75 1017.03 1017.26 1017.45 1017.61 1017.75 1017.89 1018.06 1018.26 1018.48 1018.69 1018.86 1018.95 1018.91 1018.75
1010.06 1009.99 1009.78 1009.43 1008.95 1008.39 1007.79 1007.21 1006.71 1006.32 1006.06 1005.96 1005.98 1006.11 1006.32 1006.58 1006.88 1007.21 1007.58 1008.02 1008.53 1009.13 1009.80 1010.53 1011.28 1012.03 1012.74 1013.40 1013.98 1014.51 1014.98 1015.42 1015.84 1016.23 1016.59 1016.91 1017.17 1017.37 1017.53 1017.65 1017.77 1017.91 1018.07 1018.25 1018.43 1018.56 1018.62 1018.56 1018.39
1009.50 1009.31 1009.00 1008.61 1008.15 1007.65 1007.17 1006.73 1006.37 1006.12 1005.96 1005.92 1005.96 1006.09 1006.27 1006.51 1006.79 1007.11 1007.50 1007.96 1008.50 1009.12 1009.79 1010.49 1011.20 1011.87 1012.49 1013.06 1013.57 1014.04 1014.48 1014.93 1015.37 1015.80 1016.22 1016.59 1016.89 1017.13 1017.30 1017.42 1017.52 1017.63 1017.75 1017.89 1018.03 1018.14 1018.17 1018.11 1017.96
1008.99 1008.70 1008.33 1007.92 1007.48 1007.07 1006.70 1006.38 1006.14 1005.98 1005.88 1005.85 1005.88 1005.95 1006.08 1006.25 1006.48 1006.79 1007.19 1007.68 1008.25 1008.90 1009.59 1010.29 1010.97 1011.59 1012.14 1012.63 1013.06 1013.47 1013.88 1014.30 1014.76 1015.22 1015.68 1016.10 1016.47 1016.75 1016.96 1017.09 1017.20 1017.29 1017.39 1017.50 1017.61 1017.70 1017.74 1017.69 1017.57
1008.63 1008.27 1007.86 1007.44 1007.05 1006.71 1006.42 1006.20 1006.04 1005.92 1005.84 1005.78 1005.74 1005.74 1005.77 1005.87 1006.04 1006.32 1006.72 1007.23 1007.84 1008.53 1009.26 1009.98 1010.66 1011.26 1011.77 1012.20 1012.57 1012.92 1013.28 1013.67 1014.12 1014.59 1015.08 1015.55 1015.96 1016.30 1016.55 1016.73 1016.86 1016.96 1017.06 1017.17 1017.28 1017.37 1017.43 1017.42 1017.34
1008.44 1008.05 1007.62 1007.21 1006.85 1006.56 1006.34 1006.17 1006.04 1005.93 1005.82 1005.70 1005.59 1005.48 1005.42 1005.43 1005.54 1005.78 1006.17 1006.70 1007.35 1008.09 1008.88 1009.64 1010.35 1010.96 1011.45 1011.86 1012.19 1012.49 1012.80 1013.15 1013.56 1014.03 1014.53 1015.02 1015.47 1015.86 1016.17 1016.40 1016.57 1016.70 1016.83 1016.96 1017.09 1017.22 1017.31 1017.35 1017.33
1008.41 1008.00 1007.58 1007.18 1006.84 1006.56 1006.36 1006.20 1006.06 1005.92 1005.76 1005.58 1005.39 1005.20 1005.06 1004.99 1005.05 1005.26 1005.64 1006.19 1006.87 1007.66 1008.50 1009.32 1010.08 1010.73 1011.25 1011.66 1011.98 1012.25 1012.52 1012.83 1013.19 1013.62 1014.09 1014.59 1015.06 1015.49 1015.85 1016.14 1016.37 1016.56 1016.74 1016.91 1017.09 1017.25 1017.39 1017.49 1017.52
1008.47 1008.05 1007.62 1007.22 1006.88 1006.60 1006.38 1006.19 1006.02 1005.83 1005.61 1005.36 1005.11 1004.87 1004.68 1004.58 1004.61 1004.81 1005.19 1005.74 1006.45 1007.27 1008.16 1009.04 1009.86 1010.57 1011.15 1011.60 1011.94 1012.20 1012.44 1012.70 1013.02 1013.40 1013.83 1014.31 1014.79 1015.24 1015.65 1016.00 1016.29 1016.54 1016.77 1016.99 1017.21 1017.42 1017.61 1017.75 1017.82
1008.51 1008.09 1007.65 1007.24 1006.88 1006.57 1006.31 1006.07 1005.83 1005.58 1005.31 1005.03 1004.75 1004.50 1004.31 1004.21 1004.25 1004.46 1004.84 1005.39 1006.11 1006.95 1007.86 1008.79 1009.67 1010.45 1011.10 1011.60 1011.98 1012.27 1012.51 1012.74 1013.02 1013.35 1013.75 1014.20 1014.67 1015.14 1015.59 1015.98 1016.32 1016.63 1016.91 1017.16 1017.42 1017.66 1017.87 1018.04 1018.14
1008.45 1008.02 1007.59 1007.17 1006.79 1006.44 1006.12 1005.81 1005.51 1005.20 1004.90 1004.61 1004.34 1004.12 1003.98 1003.93 1004.01 1004.24 1004.62 1005.17 1005.88 1006.70 1007.61 1008.55 1009.46 1010.30 1011.02 1011.60 1012.04 1012.38 1012.65 1012.89 1013.15 1013.46 1013.83 1014.26 1014.73 1015.21 1015.67 1016.10 1016.48 1016.82 1017.12 1017.39 1017.65 1017.89 1018.10 1018.28 1018.40
1008.24 1007.82 1007.40 1006.99 1006.60 1006.22 1005.86 1005.50 1005.15 1004.80 1004.49 1004.21 1004.00 1003.84 1003.78 1003.81 1003.95 1004.21 1004.60 1005.12 1005.78 1006.55 1007.41 1008.32 1009.23 1010.09 1010.87 1011.52 1012.05 1012.46 1012.79 1013.08 1013.37 1013.69 1014.06 1014.49 1014.96 1015.45 1015.93 1016.38 1016.77 1017.11 1017.40 1017.66 1017.89 1018.10 1018.28 1018.44 1018.56
1007.88 1007.50 1007.12 1006.76 1006.40 1006.03 1005.65 1005.28 1004.90 1004.56 1004.25 1004.02 1003.87 1003.81 1003.84 1003.96 1004.16 1004.45 1004.83 1005.30 1005.87 1006.55 1007.31 1008.14 1009.00 1009.85 1010.65 1011.37 1011.98 1012.49 1012.92 1013.30 1013.65 1014.03 1014.44 1014.90 1015.39 1015.90 1016.39 1016.83 1017.22 1017.54 1017.79 1017.99 1018.16 1018.31 1018.44 1018.56 1018.65
1007.42 1007.11 1006.82 1006.55 1006.27 1005.97 1005.64 1005.30 1004.95 1004.63 1004.38 1004.21 1004.15 1004.18 1004.31 1004.51 1004.77 1005.07 1005.41 1005.80 1006.25 1006.78 1007.40 1008.10 1008.87 1009.66 1010.46 1011.21 1011.91 1012.52 1013.07 1013.56 1014.03 1014.50 1014.99 1015.50 1016.03 1016.56 1017.06 1017.49 1017.85 1018.12 1018.31 1018.44 1018.52 1018.59 1018.65 1018.71 1018.77
1006.94 1006.73 1006.58 1006.44 1006.31 1006.14 1005.93 1005.68 1005.41 1005.18 1005.00 1004.91 1004.94 1005.06 1005.27 1005.54 1005.83 1006.12 1006.40 1006.69 1007.00 1007.36 1007.79 1008.32 1008.95 1009.65 1010.41 1011.18 1011.93 1012.65 1013.32 1013.94 1014.54 1015.12 1015.71 1016.30 1016.88 1017.43 1017.93 1018.34 1018.66 1018.87 1018.99 1019.02 1019.02 1018.99 1018.97 1018.98 1019.00
1006.50 1006.42 1006.43 1006.48 1006.54 1006.57 1006.53 1006.44 1006.32 1006.20 1006.13 1006.14 1006.25 1006.46 1006.74 1007.04 1007.35 1007.61 1007.82 1007.99 1008.15 1008.33 1008.57 1008.92 1009.39 1009.97 1010.65 1011.40 1012.19 1012.98 1013.76 1014.51 1015.23 1015.93 1016.61 1017.27 1017.90 1018.47 1018.96 1019.35 1019.62 1019.76 1019.80 1019.75 1019.66 1019.55 1019.46 1019.41 1019.40
1006.17 1006.20 1006.37 1006.63 1006.91 1007.16 1007.35 1007.46 1007.52 1007.57 1007.63 1007.76 1007.96 1008.24 1008.57 1008.91 1009.21 1009.44 1009.58 1009.65 1009.67 1009.69 1009.76 1009.93 1010.24 1010.69 1011.29 1011.99 1012.78 1013.62 1014.47 1015.30 1016.12 1016.91 1017.66 1018.37 1019.01 1019.59 1020.06 1020.41 1020.62 1020.71 1020.68 1020.57 1020.41 1020.24 1020.10 1020.02 1019.99
1005.97 1006.08 1006.38 1006.81 1007.30 1007.78 1008.21 1008.55 1008.83 1009.05 1009.28 1009.53 1009.83 1010.17 1010.55 1010.91 1011.22 1011.43 1011.54 1011.54 1011.47 1011.37 1011.31 1011.34 1011.51 1011.84 1012.34 1012.99 1013.74 1014.58 1015.45 1016.32 1017.18 1018.01 1018.78 1019.50 1020.13 1020.68 1021.11 1021.41 1021.58 1021.61 1021.54 1021.39 1021.19 1020.99 1020.83 1020.72 1020.68
1005.88 1006.02 1006.39 1006.94 1007.59 1008.27 1008.91 1009.48 1009.97 1010.39 1010.78 1011.17 1011.57 1011.99 1012.42 1012.82 1013.15 1013.37 1013.48 1013.46 1013.36 1013.22 1013.09 1013.04 1013.11 1013.35 1013.76 1014.33 1015.02 1015.81 1016.65 1017.51 1018.35 1019.15 1019.89 1020.56 1021.15 1021.63 1022.01 1022.25 1022.37 1022.37 1022.28 1022.11 1021.90 1021.70 1021.54 1021.43 1021.39
1005.91 1006.00 1006.36 1006.95 1007.69 1008.50 1009.32 1010.08 1010.76 1011.37 1011.92 1012.44 1012.96 1013.46 1013.95 1014.40 1014.78 1015.05 1015.20 1015.23 1015.17 1015.05 1014.92 1014.85 1014.89 1015.07 1015.41 1015.89 1016.51 1017.21 1017.97 1018.75 1019.51 1020.23 1020.89 1021.47 1021.97 1022.37 1022.68 1022.86 1022.94 1022.92 1022.82 1022.66 1022.47 1022.29 1022.14 1022.05 1022.02
1006.03 1006.00 1006.28 1006.84 1007.59 1008.46 1009.37 1010.27 1011.12 1011.88 1012.59 1013.24 1013.85 1014.44 1015.01 1015.52 1015.97 1016.33 1016.57 1016.70 1016.73 1016.70 1016.64 1016.61 1016.66 1016.82 1017.11 1017.52 1018.03 1018.63 1019.28 1019.93 1020.57 1021.16 1021.70 1022.17 1022.56 1022.87 1023.10 1023.23 1023.28 1023.25 1023.16 1023.03 1022.87 1022.72 1022.60 1022.53 1022.50
1006.24 1006.07 1006.22 1006.66 1007.35 1008.21 1009.16 1010.14 1011.10 1011.99 1012.81 1013.57 1014.29 1014.96 1015.60 1016.19 1016.72 1017.17 1017.53 1017.79 1017.95 1018.05 1018.11 1018.17 1018.27 1018.44 1018.69 1019.03 1019.45 1019.93 1020.44 1020.96 1021.45 1021.90 1022.30 1022.65 1022.93 1023.15 1023.31 1023.41 1023.44 1023.43 1023.36 1023.26 1023.14 1023.02 1022.92 1022.85 1022.82
1006.57 1006.26 1006.26 1006.56 1007.15 1007.94 1008.88 1009.88 1010.89 1011.87 1012.78 1013.62 1014.41 1015.15 1015.84 1016.50 1017.11 1017.65 1018.12 1018.51 1018.82 1019.06 1019.25 1019.42 1019.59 1019.78 1020.02 1020.31 1020.64 1021.00 1021.38 1021.76 1022.11 1022.43 1022.71 1022.95 1023.14 1023.30 1023.42 1023.50 1023.53 1023.53 1023.50 1023.44 1023.35 1023.25 1023.16 1023.08 1023.02
1007.04 1006.64 1006.51 1006.69 1007.15 1007.86 1008.75 1009.74 1010.77 1011.78 1012.75 1013.64 1014.48 1015.25 1015.99 1016.68 1017.33 1017.94 1018.50 1019.00 1019.42 1019.79 1020.09 1020.36 1020.59 1020.82 1021.05 1021.29 1021.55 1021.81 1022.08 1022.33 1022.57 1022.78 1022.97 1023.14 1023.28 1023.41 1023.51 1023.60 1023.66 1023.69 1023.69 1023.65 1023.59 1023.50 1023.40 1023.29 1023.19
Thickness
5801 5810 5816 5810 5794 5789 5792 5806 5814 5813 5817 5837 5844 5837 5826 5814 5799 5786 5820 5837 5833 5823 5814 5808 5803 5798 5793 5789 5785 5782 5779 5776 5774 5771 5769 5767 5765 5763 5761 5759 5758 5756 5755 5753 5752 5751 5750 5750 5749
5799 5807 5806 5796 5778 5773 5787 5803 5805 5818 5831 5847 5848 5844 5831 5818 5823 5823 5830 5835 5830 5820 5812 5806 5800 5795 5790 5786 5782 5778 5775 5773 5770 5768 5765 5763 5761 5759 5758 5756 5754 5753 5752 5750 5750 5749 5748 5747 5746
5796 5801 5788 5782 5774 5776 5783 5795 5802 5820 5840 5845 5843 5844 5833 5821 5828 5830 5833 5834 5827 5817 5810 5801 5797 5792 5787 5783 5779 5775 5772 5770 5767 5765 5762 5760 5758 5756 5754 5753 5751 5750 5749 5748 5747 5746 5745 5745 5744
5790 5789 5783 5773 5773 5795 5799 5796 5802 5809 5831 5841 5839 5831 5832 5838 5837 5837 5837 5833 5824 5814 5805 5797 5793 5789 5784 5780 5776 5772 5769 5767 5764 5762 5759 5757 5755 5753 5751 5750 5748 5747 5746 5745 5744 5744 5743 5742 5742
5785 5774 5763 5763 5778 5802 5809 5806 5803 5799 5813 5828 5832 5819 5813 5833 5842 5839 5835 5830 5820 5812 5801 5793 5788 5785 5781 5776 5773 5769 5766 5764 5762 5759 5757 5754 5753 5751 5749 5747 5746 5745 5744 5743 5742 5741 5741 5740 5739
5768 5767 5751 5757 5778 5802 5811 5811 5807 5802 5811 5826 5829 5817 5807 5829 5832 5832 5832 5826 5820 5809 5798 5788 5784 5781 5777 5773 5770 5767 5764 5761 5759 5757 5754 5752 5750 5749 5747 5745 5744 5743 5742 5741 5740 5739 5739 5738 5737
5757 5756 5753 5764 5777 5795 5814 5820 5809 5808 5814 5825 5831 5812 5807 5819 5826 5830 5829 5824 5816 5807 5795 5786 5781 5777 5773 5770 5767 5764 5761 5759 5757 5754 5752 5750 5749 5747 5745 5744 5742 5741 5740 5739 5738 5738 5737 5737 5736
5763 5753 5751 5764 5773 5790 5816 5816 5816 5811 5814 5834 5834 5808 5794 5804 5820 5825 5824 5818 5811 5803 5793 5786 5780 5775 5770 5766 5763 5761 5759 5757 5755 5753 5751 5749 5747 5745 5744 5742 5741 5739 5738 5737 5737 5737 5736 5735 5735
5760 5740 5742 5761 5773 5791 5812 5800 5802 5816 5815 5826 5832 5821 5809 5814 5817 5817 5814 5810 5804 5799 5791 5787 5782 5776 5771 5766 5762 5758 5756 5755 5753 5751 5749 5748 5747 5746 5743 5743 5740 5738 5737 5736 5736 5736 5735 5735 5734
5746 5733 5747 5771 5784 5794 5806 5797 5789 5791 5794 5808 5819 5819 5818 5815 5813 5811 5807 5802 5799 5794 5791 5788 5784 5778 5774 5770 5762 5758 5756 5754 5753 5752 5749 5748 5749 5748 5747 5743 5740 5738 5737 5736 5735 5735 5735 5735 5735
5743 5738 5755 5770 5784 5793 5795 5794 5794 5780 5778 5797 5807 5813 5814 5813 5811 5809 5807 5804 5800 5796 5792 5791 5786 5781 5778 5772 5764 5761 5759 5755 5754 5754 5751 5750 5750 5749 5747 5743 5740 5738 5738 5737 5736 5735 5735 5737 5737
5740 5746 5755 5764 5778 5783 5785 5789 5787 5786 5790 5811 5817 5818 5814 5810 5809 5810 5808 5805 5802 5797 5793 5792 5788 5783 5780 5775 5769 5765 5763 5758 5757 5756 5753 5751 5750 5751 5750 5746 5743 5741 5740 5739 5738 5737 5738 5739 5739
5736 5742 5753 5761 5767 5773 5777 5779 5782 5787 5803 5814 5817 5814 5812 5811 5812 5813 5813 5809 5803 5796 5794 5792 5789 5783 5780 5776 5771 5768 5766 5762 5760 5758 5754 5753 5752 5750 5751 5749 5746 5744 5743 5741 5740 5739 5739 5738 5737
5736 5743 5747 5752 5756 5763 5761 5769 5774 5784 5799 5804 5807 5808 5811 5813 5813 5812 5811 5806 5802 5795 5791 5792 5788 5783 5779 5774 5771 5769 5767 5763 5762 5759 5755 5753 5752 5751 5749 5747 5744 5742 5741 5739 5738 5737 5735 5733 5732
5733 5726 5731 5742 5749 5755 5755 5751 5766 5785 5793 5794 5800 5806 5809 5812 5814 5812 5811 5807 5803 5796 5791 5790 5786 5782 5777 5773 5770 5768 5767 5764 5762 5758 5756 5753 5751 5749 5747 5744 5742 5740 5738 5736 5734 5733 5731 5729 5727
5719 5711 5709 5733 5745 5752 5743 5738 5770 5789 5788 5788 5796 5802 5806 5808 5812 5813 5813 5808 5803 5798 5790 5788 5786 5780 5775 5772 5768 5767 5765 5763 5760 5758 5755 5752 5749 5746 5744 5741 5739 5737 5734 5732 5730 5727 5724 5722 5721
5703 5700 5709 5731 5752 5752 5744 5743 5771 5791 5789 5788 5793 5799 5802 5801 5804 5807 5808 5807 5803 5796 5789 5785 5782 5777 5772 5769 5765 5764 5762 5760 5758 5755 5752 5748 5746 5743 5740 5737 5734 5732 5730 5727 5724 5721 5717 5714 5712
5700 5712 5722 5734 5756 5753 5745 5749 5769 5785 5788 5787 5791 5792 5794 5792 5794 5799 5803 5801 5798 5793 5787 5782 5778 5774 5769 5765 5761 5759 5757 5755 5753 5751 5748 5745 5741 5738 5735 5731 5729 5726 5723 5719 5716 5713 5710 5707 5705
5711 5715 5727 5746 5762 5750 5744 5747 5760 5775 5778 5778 5778 5779 5778 5778 5786 5791 5791 5790 5790 5785 5780 5775 5772 5769 5765 5760 5756 5752 5749 5748 5746 5744 5741 5738 5735 5732 5729 5726 5723 5719 5715 5712 5709 5705 5701 5699 5697
5708 5709 5724 5743 5755 5747 5740 5739 5750 5760 5763 5767 5767 5766 5766 5765 5770 5773 5776 5777 5777 5775 5771 5768 5765 5764 5761 5757 5754 5750 5746 5743 5739 5735 5732 5729 5727 5724 5722 5719 5716 5713 5708 5704 5701 5698 5694 5691 5689
5702 5707 5718 5727 5740 5744 5734 5726 5733 5746 5754 5755 5754 5752 5753 5750 5750 5750 5753 5758 5762 5760 5761 5761 5760 5759 5756 5753 5749 5745 5739 5735 5730 5725 5721 5718 5716 5713 5710 5708 5706 5704 5700 5696 5693 5690 5687 5683 5680
5694 5716 5720 5723 5722 5722 5729 5708 5720 5731 5733 5734 5733 5733 5732 5733 5735 5735 5738 5742 5747 5749 5752 5752 5752 5751 5750 5747 5742 5736 5730 5725 5720 5714 5709 5707 5705 5702 5698 5696 5695 5694 5691 5688 5686 5684 5681 5676 5671
5706 5723 5720 5720 5719 5719 5727 5712 5709 5723 5715 5713 5713 5715 5716 5718 5719 5720 5724 5729 5732 5737 5740 5741 5741 5740 5741 5740 5736 5730 5723 5716 5711 5705 5700 5696 5693 5690 5687 5685 5683 5681 5679 5676 5675 5674 5670 5667 5664
5714 5717 5716 5717 5716 5699 5719 5716 5695 5703 5703 5699 5699 5700 5701 5702 5704 5706 5711 5715 5716 5722 5726 5728 5728 5728 5729 5728 5725 5720 5714 5709 5702 5695 5689 5684 5680 5677 5674 5671 5671 5668 5665 5663 5661 5659 5656 5654 5651
5705 5695 5686 5687 5691 5700 5729 5715 5682 5691 5696 5692 5686 5687 5688 5690 5691 5692 5694 5698 5701 5704 5708 5713 5715 5713 5714 5713 5709 5706 5701 5696 5691 5684 5678 5672 5666 5662 5659 5658 5656 5653 5650 5648 5647 5644 5642 5639 5636
5698 5697 5684 5682 5691 5713 5730 5701 5679 5688 5687 5684 5681 5679 5677 5677 5677 5678 5679 5682 5685 5688 5692 5696 5698 5695 5696 5695 5693 5689 5686 5681 5675 5669 5665 5659 5653 5648 5644 5642 5640 5638 5635 5633 5632 5629 5625 5622 5620
5699 5701 5713 5698 5694 5695 5698 5681 5674 5683 5679 5677 5673 5671 5667 5666 5665 5665 5666 5668 5671 5673 5675 5677 5679 5678 5677 5676 5675 5672 5669 5665 5658 5653 5649 5643 5639 5635 5631 5628 5625 5622 5620 5618 5616 5613 5609 5607 5604
5716 5715 5708 5697 5678 5674 5675 5678 5673 5670 5670 5668 5665 5661 5658 5657 5655 5655 5655 5656 5657 5658 5659 5660 5662 5661 5658 5658 5656 5653 5650 5646 5642 5638 5633 5628 5624 5621 5617 5613 5610 5607 5604 5602 5600 5597 5594 5592 5589
5704 5709 5709 5709 5697 5672 5655 5658 5685 5673 5666 5660 5655 5652 5649 5648 5646 5645 5644 5644 5645 5645 5646 5646 5646 5644 5643 5641 5638 5636 5633 5629 5625 5621 5617 5613 5609 5606 5602 5599 5596 5593 5590 5587 5584 5582 5579 5576 5573
5711 5709 5709 5695 5693 5695 5672 5650 5667 5663 5657 5651 5645 5641 5640 5638 5637 5636 5635 5634 5633 5633 5632 5631 5630 5630 5627 5625 5622 5619 5616 5613 5610 5605 5602 5598 5595 5592 5589 5585 5582 5579 5576 5573 5571 5568 5565 5562 5559